[[{"header":{"parameterUnit":"m.s-1","parameterCategory":1,"la1":30.2991,"la2":30.254,"lo1":-89.0895,"lo2":-89.0444,"dx":0.0017,"dy":0.0017,"nx":28,"ny":28,"refTime":"2022-11-16T03:00:00:Z","depth":0,"parameterNumber":2,"parameterNumberName":"U-component_of_WINDS"},"data":[0,0,0,0,0,0,0,0,0,0,0,0,0,0,0,0,0,0,0,0,0,0,0,0,0,0,0,0,0,0,0,0,0,0,0,0,0,0,0,0,0,0,0,0,0,0,0,0,0,0,0,0,0,0,0,0,0,0,-0.8241,-0.8241,0,-0.8294,-0.8295,-0.8296,-0.8273,-0.8272,-0.8271,-0.827,-0.8326,-0.8329,-0.8332,0,0,0,0,0,0,0,0,0,0,0,0,0,-0.8119,-0.8121,-0.8241,-0.8241,-0.8242,-0.8294,-0.8295,-0.8296,-0.8274,-0.8272,-0.827,-0.8269,-0.8325,-0.8329,-0.8332,0,0,0,0,0,0,0,0,0,0,0,0,0,-0.8172,-0.8122,-0.8241,-0.8237,-0.8237,-0.8294,-0.8295,-0.8296,-0.8274,-0.8272,-0.827,-0.8268,-0.8324,-0.8328,-0.8332,-0.8396,0,0,-0.8345,-0.8347,0,0,0,0,0,0,0,0,-0.8169,-0.8177,-0.8237,-0.8237,-0.8238,-0.8275,-0.8273,-0.833,-0.8274,-0.826,-0.8269,-0.8267,-0.8311,-0.8316,-0.833,-0.8399,-0.8401,-0.8345,-0.8348,-0.8349,-0.8351,0,0,0,0,0,0,0,-0.8166,-0.8174,-0.8262,-0.8238,-0.8238,-0.8233,-0.8238,-0.8284,-0.8296,-0.8261,-0.826,-0.8266,-0.8311,-0.8327,-0.8332,-0.8402,-0.8345,-0.8349,-0.8351,-0.8353,-0.8525,-0.8527,0,0,0,0,0,0,-0.8162,-0.8171,-0.826,-0.8264,-0.8198,-0.8237,-0.8243,-0.8265,-0.8295,-0.8298,-0.8268,-0.8265,-0.8321,-0.8327,-0.8334,-0.841,-0.8349,-0.8353,-0.8356,-0.8522,-0.8525,-0.8527,0,0,0,0,0,0,-0.8159,-0.817,-0.8258,-0.8217,-0.8228,-0.8241,-0.8266,-0.8267,-0.8283,-0.83,-0.8302,-0.8282,-0.8319,-0.8328,-0.838,-0.8412,-0.8355,-0.8359,-0.852,-0.8523,-0.8526,-0.8563,0,0,0,0,0,0,-0.8156,-0.8169,-0.8194,-0.8218,-0.823,-0.8304,-0.8268,-0.827,-0.829,-0.8287,-0.8314,-0.8316,-0.8318,-0.8374,-0.8385,-0.8416,-0.8362,-0.8517,-0.8521,-0.8525,-0.8559,-0.8567,-0.8574,0,0,0,0,0,-0.8152,-0.8203,-0.8195,-0.8206,-0.8261,-0.8306,-0.8313,-0.8314,-0.8292,-0.8317,-0.8328,-0.8316,-0.8406,-0.838,-0.8391,-0.8424,-0.8515,-0.852,-0.8525,-0.8556,-0.8566,-0.8574,0,0,0,0,0,0,-0.8183,-0.8206,-0.8198,-0.8258,-0.828,-0.8302,-0.8334,-0.8324,-0.8354,-0.835,-0.835,-0.8356,-0.841,-0.8422,-0.8393,-0.8487,-0.8457,-0.8465,-0.8477,-0.8487,-0.8494,-0.849,-0.8365,0,0,0,0,0,-0.8196,-0.8231,-0.8249,-0.8301,-0.8312,-0.8321,-0.834,-0.8339,-0.8362,-0.8372,-0.8386,-0.841,-0.8443,-0.8466,-0.8498,-0.856,-0.8566,-0.8589,-0.8596,-0.8602,-0.8609,-0.8642,-0.8652,-0.8543,-0.8543,-0.8543,0,0,-0.8226,-0.8242,-0.8264,-0.8307,-0.8324,-0.836,-0.8329,-0.8368,-0.8395,-0.8378,-0.8428,-0.844,-0.8466,-0.8523,-0.855,-0.8535,-0.864,-0.8608,-0.8613,-0.8616,-0.8648,-0.8658,-0.8668,-0.8546,-0.8546,-0.8545,0,0,-0.8297,-0.8313,-0.8357,-0.8374,-0.84,-0.8405,-0.8416,-0.8439,-0.8446,-0.8496,-0.8484,-0.8515,-0.8573,-0.8592,-0.8609,-0.8685,-0.8675,-0.8696,-0.8735,-0.8767,-0.8776,-0.8783,-0.8811,-0.882,-0.8702,-0.8702,-0.8702,0,-0.833,-0.8383,-0.8381,-0.8421,-0.844,-0.8425,-0.847,-0.8487,-0.8522,-0.8535,-0.8518,-0.859,-0.8607,-0.8668,-0.8687,-0.8701,-0.8713,-0.8693,-0.8775,-0.8782,-0.8789,-0.8815,-0.8825,-0.8704,-0.8704,-0.8704,-0.8703,0,-0.8423,-0.8459,-0.8492,-0.8525,-0.8548,-0.859,-0.8594,-0.8617,-0.8613,-0.862,-0.8671,-0.869,-0.8725,-0.8739,-0.8736,-0.88,-0.879,-0.8774,-0.8744,-0.8802,-0.8826,-0.8836,-0.8708,-0.8707,-0.8706,-0.8705,0,0,-0.8517,-0.8547,-0.8559,-0.8573,-0.86,-0.8628,-0.8669,-0.8703,-0.8722,-0.8746,-0.8781,-0.8829,-0.8814,-0.8833,-0.8832,-0.886,-0.8919,-0.884,-0.8841,-0.8854,-0.899,-0.9002,-0.9014,-0.8911,-0.8913,-0.8915,-0.8988,0,-0.859,-0.8662,-0.8661,-0.8727,-0.8761,-0.8746,-0.8781,-0.8801,-0.8808,-0.8838,-0.8846,-0.888,-0.8857,-0.8869,-0.8896,-0.8906,-0.8946,-0.89,-0.8944,-0.8945,-0.8938,-0.9027,-0.904,-0.9109,-0.8997,-0.8999,-0.9,0,-0.8686,-0.8712,-0.8782,-0.8802,-0.8816,-0.8848,-0.8878,-0.8906,-0.8928,-0.8931,-0.8952,-0.8945,-0.8987,-0.8955,-0.9011,-0.898,-0.8998,-0.9005,-0.9008,-0.9012,-0.8977,-0.9034,-0.913,-0.9141,-0.9015,-0.9014,-0.9013,0,-0.8748,-0.88,-0.8849,-0.8861,-0.8886,-0.8909,-0.892,-0.894,-0.896,-0.8986,-0.8998,-0.9029,-0.9046,-0.907,-0.9072,-0.9048,-0.9129,-0.9097,-0.9132,-0.9132,-0.9151,-0.915,-0.9252,-0.9161,-0.9161,-0.9161,-0.9161,0,-0.883,-0.8874,-0.8876,-0.8906,-0.8954,-0.8952,-0.8999,-0.9008,-0.9025,-0.9057,-0.9045,-0.9075,-0.9075,-0.9105,-0.9107,-0.9153,-0.9161,-0.9165,-0.9165,-0.9166,-0.9166,-0.9178,-0.9174,-0.9164,-0.9163,-0.9163,-0.9162,0,-0.8908,-0.8912,-0.8963,-0.8982,-0.8987,-0.9022,-0.9037,-0.9065,-0.9071,-0.911,-0.9119,-0.9128,-0.9162,-0.9166,-0.9206,-0.9207,-0.9263,-0.9258,-0.9256,-0.9255,-0.929,-0.9287,-0.9404,-0.9419,-0.9319,-0.932,-0.9321,0,-0.8961,-0.8994,-0.9015,-0.9035,-0.9047,-0.9079,-0.9098,-0.9097,-0.9118,-0.9144,-0.9169,-0.9202,-0.9229,-0.9285,-0.9294,-0.9325,-0.9321,-0.9359,-0.9325,-0.9325,-0.9321,-0.9319,-0.9323,-0.9366,-0.9368,-0.9368,-0.9369,0,-0.9054,-0.9054,-0.9082,-0.9111,-0.9135,-0.9157,-0.9179,-0.9195,-0.9196,-0.922,-0.9255,-0.9276,-0.9316,-0.9349,-0.9379,-0.939,-0.938,-0.9379,-0.9389,-0.9391,-0.9389,-0.9391,-0.9274,-0.9377,-0.9376,-0.9376,-0.9375,-0.9375,-0.9121,-0.9149,-0.9168,-0.92,-0.9215,-0.9235,-0.9262,-0.927,-0.9299,-0.9331,-0.9328,-0.9367,-0.9386,-0.9425,-0.9438,-0.9468,-0.9455,-0.947,-0.9473,-0.9477,-0.948,-0.9383,-0.9474,-0.9473,-0.9473,-0.9473,-0.9473,0,-0.9214,-0.9225,-0.9254,-0.9283,-0.9308,-0.9295,-0.9317,-0.9339,-0.9373,-0.9392,-0.9417,-0.9457,-0.9488,-0.95,-0.953,-0.9552,-0.9548,-0.956,-0.9559,-0.9561,-0.949,-0.9479,-0.9563,-0.9563,-0.9563,-0.9563,-0.9563,-0.9563,-0.9265,-0.9311,-0.9313,-0.9366,-0.9377,-0.9414,-0.9428,-0.9446,-0.9461,-0.9505,-0.9531,-0.9538,-0.9553,-0.9585,-0.9613,-0.9615,-0.9627,-0.9641,-0.9642,-0.9576,-0.9567,-0.9558,-0.9547,-0.9644,-0.9644,-0.971,-0.9711,-0.9712]},{"header":{"parameterUnit":"m.s-1","parameterCategory":1,"la1":30.2991,"la2":30.254,"lo1":-89.0895,"lo2":-89.0444,"dx":0.0017,"dy":0.0017,"nx":28,"ny":28,"refTime":"2022-11-16T03:00:00:Z","depth":0,"parameterNumber":3,"parameterNumberName":"V-component_of_WINDS"},"data":[0,0,0,0,0,0,0,0,0,0,0,0,0,0,0,0,0,0,0,0,0,0,0,0,0,0,0,0,0,0,0,0,0,0,0,0,0,0,0,0,0,0,0,0,0,0,0,0,0,0,0,0,0,0,0,0,0,0,-7.1446,-7.1447,0,-7.1551,-7.1552,-7.1553,-7.1474,-7.1471,-7.1467,-7.1464,-7.1565,-7.1571,-7.1577,0,0,0,0,0,0,0,0,0,0,0,0,0,-7.1172,-7.1178,-7.1446,-7.1447,-7.1449,-7.155,-7.1552,-7.1553,-7.1475,-7.147,-7.1466,-7.1462,-7.1564,-7.157,-7.1578,0,0,0,0,0,0,0,0,0,0,0,0,0,-7.1286,-7.118,-7.1446,-7.1422,-7.1421,-7.155,-7.1552,-7.1554,-7.1475,-7.147,-7.1465,-7.146,-7.1561,-7.157,-7.1579,-7.1736,0,0,-7.1605,-7.1609,0,0,0,0,0,0,0,0,-7.1279,-7.1296,-7.1424,-7.1424,-7.1423,-7.1494,-7.1493,-7.1614,-7.1477,-7.1455,-7.1464,-7.1458,-7.1546,-7.1555,-7.1586,-7.174,-7.1745,-7.1606,-7.1612,-7.1615,-7.1618,0,0,0,0,0,0,0,-7.1271,-7.1291,-7.1487,-7.1426,-7.1425,-7.1404,-7.1414,-7.1515,-7.1527,-7.1456,-7.1451,-7.1464,-7.1544,-7.1578,-7.1588,-7.1746,-7.1606,-7.1614,-7.1619,-7.1623,-7.2033,-7.2038,0,0,0,0,0,0,-7.1267,-7.1285,-7.1484,-7.149,-7.1337,-7.1413,-7.1425,-7.1476,-7.1526,-7.1529,-7.1469,-7.146,-7.1565,-7.1578,-7.1591,-7.1777,-7.1615,-7.1624,-7.1629,-7.2027,-7.2034,-7.204,0,0,0,0,0,0,-7.1261,-7.1285,-7.148,-7.1386,-7.1409,-7.1423,-7.1482,-7.1481,-7.1515,-7.1536,-7.1537,-7.1501,-7.1562,-7.1579,-7.17,-7.178,-7.1628,-7.1636,-7.2021,-7.2029,-7.2037,-7.2152,0,0,0,0,0,0,-7.1254,-7.1284,-7.1345,-7.1388,-7.1415,-7.1589,-7.1487,-7.1487,-7.1531,-7.1521,-7.1566,-7.1569,-7.1559,-7.1688,-7.1709,-7.1789,-7.1643,-7.2014,-7.2025,-7.2034,-7.2141,-7.2163,-7.2182,0,0,0,0,0,-7.1244,-7.1372,-7.1349,-7.1373,-7.1492,-7.1594,-7.1609,-7.1596,-7.1538,-7.1598,-7.1611,-7.1567,-7.1768,-7.1701,-7.1724,-7.1808,-7.2008,-7.2021,-7.2034,-7.2132,-7.2159,-7.2182,0,0,0,0,0,0,-7.1336,-7.1377,-7.1352,-7.1498,-7.1543,-7.1581,-7.1657,-7.1626,-7.1687,-7.1675,-7.1655,-7.1666,-7.1794,-7.1813,-7.1737,-7.1962,-7.1878,-7.1896,-7.1945,-7.1971,-7.1991,-7.1983,-7.165,0,0,0,0,0,-7.1374,-7.1455,-7.1486,-7.1612,-7.1636,-7.1643,-7.1687,-7.1674,-7.1719,-7.1737,-7.1759,-7.1804,-7.1876,-7.1925,-7.1993,-7.2143,-7.2151,-7.2213,-7.2233,-7.225,-7.2265,-7.2345,-7.2372,-7.2081,-7.2081,-7.2081,0,0,-7.1452,-7.1484,-7.1537,-7.1631,-7.1665,-7.1748,-7.166,-7.1751,-7.1812,-7.175,-7.1867,-7.1885,-7.1933,-7.207,-7.2131,-7.209,-7.2347,-7.2266,-7.2279,-7.2285,-7.2361,-7.2388,-7.2413,-7.209,-7.2088,-7.2087,0,0,-7.1636,-7.167,-7.1778,-7.1814,-7.1866,-7.187,-7.1896,-7.1938,-7.1948,-7.2066,-7.2021,-7.2092,-7.2218,-7.2254,-7.2288,-7.2486,-7.2447,-7.2509,-7.2615,-7.2694,-7.2716,-7.2737,-7.2806,-7.2831,-7.2524,-7.2524,-7.2525,0,-7.1725,-7.1851,-7.1837,-7.1932,-7.1975,-7.1925,-7.2033,-7.2068,-7.2139,-7.2168,-7.2122,-7.2279,-7.2307,-7.2451,-7.25,-7.253,-7.2557,-7.2503,-7.2715,-7.2735,-7.2753,-7.2819,-7.2846,-7.2531,-7.2531,-7.253,-7.2529,0,-7.1958,-7.2045,-7.2126,-7.2198,-7.225,-7.2351,-7.2351,-7.2404,-7.2386,-7.2394,-7.2513,-7.2545,-7.2619,-7.2652,-7.2635,-7.2794,-7.2766,-7.2718,-7.2633,-7.2788,-7.285,-7.2875,-7.2541,-7.2539,-7.2537,-7.2535,0,0,-7.2203,-7.2267,-7.2296,-7.2328,-7.2383,-7.2449,-7.2547,-7.2621,-7.2666,-7.2717,-7.2798,-7.2906,-7.2861,-7.29,-7.2886,-7.2955,-7.3108,-7.2898,-7.2898,-7.2935,-7.3284,-7.3319,-7.3349,-7.3083,-7.3088,-7.3092,-7.3279,0,-7.2389,-7.2563,-7.2553,-7.2715,-7.2794,-7.2748,-7.2833,-7.2874,-7.2884,-7.2952,-7.2961,-7.3038,-7.2974,-7.2997,-7.3063,-7.3076,-7.3178,-7.3062,-7.3156,-7.316,-7.3145,-7.3381,-7.342,-7.3595,-7.3303,-7.3307,-7.331,0,-7.263,-7.2691,-7.2861,-7.2903,-7.2936,-7.3014,-7.308,-7.3145,-7.3191,-7.3193,-7.3237,-7.3212,-7.3309,-7.3223,-7.3355,-7.3277,-7.3315,-7.3326,-7.3333,-7.334,-7.3244,-7.3394,-7.3651,-7.3677,-7.3348,-7.3345,-7.3343,0,-7.279,-7.2915,-7.3033,-7.3061,-7.3114,-7.3169,-7.3193,-7.3233,-7.3278,-7.3335,-7.3363,-7.3431,-7.3467,-7.3519,-7.3512,-7.345,-7.3646,-7.356,-7.3649,-7.3649,-7.3692,-7.3689,-7.3957,-7.3718,-7.3718,-7.3717,-7.3717,0,-7.2999,-7.3105,-7.3105,-7.3178,-7.3294,-7.3281,-7.3396,-7.3414,-7.345,-7.3523,-7.3487,-7.3556,-7.3543,-7.3611,-7.3606,-7.3715,-7.3732,-7.3735,-7.3732,-7.3738,-7.3738,-7.3762,-7.3749,-7.3724,-7.3723,-7.3721,-7.372,0,-7.3198,-7.3203,-7.3328,-7.3367,-7.338,-7.3464,-7.3496,-7.3564,-7.3571,-7.3664,-7.3685,-7.3695,-7.3774,-7.3772,-7.3861,-7.3857,-7.3992,-7.3976,-7.3978,-7.3974,-7.4063,-7.4054,-7.4355,-7.4393,-7.4131,-7.4133,-7.4135,0,-7.333,-7.3411,-7.3459,-7.3507,-7.3535,-7.3612,-7.3658,-7.3647,-7.3696,-7.3754,-7.3814,-7.3889,-7.3949,-7.4077,-7.4091,-7.4159,-7.4143,-7.4243,-7.4152,-7.4156,-7.4143,-7.4138,-7.4145,-7.4261,-7.4264,-7.4266,-7.4268,0,-7.3565,-7.3563,-7.3632,-7.3702,-7.3758,-7.3812,-7.3861,-7.3901,-7.3896,-7.3952,-7.4033,-7.408,-7.4172,-7.4247,-7.4312,-7.4333,-7.43,-7.4297,-7.4321,-7.4327,-7.4325,-7.4326,-7.4025,-7.429,-7.4288,-7.4286,-7.4285,-7.4284,-7.3734,-7.3803,-7.3848,-7.3925,-7.3962,-7.4009,-7.4074,-7.409,-7.4158,-7.4233,-7.4222,-7.4312,-7.4354,-7.4438,-7.4466,-7.4535,-7.4499,-7.4534,-7.4543,-7.4551,-7.4561,-7.4315,-7.4546,-7.4546,-7.4545,-7.4545,-7.4544,0,-7.3965,-7.3992,-7.4064,-7.4135,-7.4195,-7.416,-7.4213,-7.4265,-7.4346,-7.4388,-7.4449,-7.4541,-7.4614,-7.4634,-7.4703,-7.4754,-7.474,-7.4773,-7.4768,-7.4773,-7.4589,-7.4561,-7.4783,-7.4783,-7.4783,-7.4782,-7.4782,-7.4782,-7.4093,-7.4208,-7.4212,-7.4344,-7.4369,-7.4459,-7.4492,-7.4534,-7.4568,-7.4674,-7.4735,-7.4748,-7.4781,-7.4852,-7.4917,-7.492,-7.4947,-7.4985,-7.4983,-7.481,-7.4787,-7.4764,-7.4737,-7.4992,-7.4992,-7.5161,-7.5162,-7.5164]}]]